Weather History for Stevensville, MD

Change the Weather History Date:

Tuesday, December 4, 2012

  Actual Average (KESN) Record (KESN)
Temperature  
Mean Temperature 58 °F -  
Max Temperature 66 °F 49 °F 71 °F (2012)
Min Temperature 50 °F 28 °F 13 °F (1976)
Degree Days  
Heating Degree Days 7    
Growing Degree Days 8 (Base 50)    
Moisture  
Dew Point 51 °F    
Average Humidity 81    
Maximum Humidity 100    
Minimum Humidity 60    
Precipitation  
Precipitation 0.00 in - - ()
Sea Level Pressure  
Sea Level Pressure 30.17 in    
Wind  
Wind Speed 6 mph (SSE)    
Max Wind Speed 10 mph    
Max Gust Speed -    
Visibility 10 miles    
Events      
Averages and records for this station are not official NWS values.
T = Trace of Precipitation, MM = Missing Value Source: NWS Daily Summary

Daily Weather History Graph

Daily Weather History Graph

Search for Another Location

Airport:

Trip Planner

Search our weather history database for the weather conditions in past years. The results will help you decide how hot, cold, wet, or windy it might be!

Date:

Astronomy

Dec. 04, 2012 Rise Set
Actual Time 7:08 AM EST 4:42 PM EST
Civil Twilight 6:38 AM EST 5:12 PM EST
Nautical Twilight 6:05 AM EST 5:45 PM EST
Astronomical Twilight 5:33 AM EST 6:18 PM EST
Moon 10:26 PM EST (12/4) 11:03 AM EST (12/4)
Length of Visible Light 10h 33m
Length of Day
9h 34m
Waning Gibbous, 69% of the Moon is Illuminated
Dec 4
Waning Gibbous
Dec 6
Last Quarter
Dec 13
New
Dec 20
First Quarter
Dec 28
Full

Hourly Weather History & Observations

Time (EST) Temp. Dew Point Humidity Pressure Visibility Wind Dir Wind Speed Gust Speed Precip Events Conditions
12:18 AM 53.6 °F 50.0 °F 88% 30.24 in 10.0 mi SSE 8.1 mph - N/A   Mostly Cloudy
12:39 AM 53.6 °F 50.0 °F 88% 30.23 in 10.0 mi SSE 6.9 mph - N/A   Scattered Clouds
1:01 AM 53.6 °F 50.0 °F 88% 30.23 in 10.0 mi SSE 6.9 mph - N/A   Scattered Clouds
1:22 AM 51.8 °F 50.0 °F 94% 30.23 in 10.0 mi SSE 6.9 mph - N/A   Clear
1:43 AM 53.6 °F 50.0 °F 88% 30.23 in 10.0 mi SSE 6.9 mph - N/A   Clear
2:05 AM 51.8 °F 50.0 °F 94% 30.24 in 10.0 mi SSE 5.8 mph - N/A   Clear
2:26 AM 51.8 °F 50.0 °F 94% 30.24 in 10.0 mi SSE 3.5 mph - N/A   Clear
2:47 AM 51.8 °F 50.0 °F 94% 30.24 in 10.0 mi Calm Calm - N/A   Clear
3:08 AM 50.0 °F 48.2 °F 94% 30.23 in 10.0 mi Calm Calm - N/A   Clear
3:30 AM 51.8 °F 50.0 °F 94% 30.23 in 10.0 mi Calm Calm - N/A   Clear
3:51 AM 51.8 °F 50.0 °F 94% 30.23 in 10.0 mi SE 3.5 mph - N/A   Clear
4:12 AM 51.8 °F 50.0 °F 94% 30.23 in 10.0 mi SE 4.6 mph - N/A   Scattered Clouds
4:34 AM 51.8 °F 50.0 °F 94% 30.23 in 10.0 mi SE 3.5 mph - N/A   Clear
4:55 AM 51.8 °F 50.0 °F 94% 30.23 in 10.0 mi SSE 4.6 mph - N/A   Clear
5:16 AM 51.8 °F 50.0 °F 94% 30.23 in 10.0 mi SE 4.6 mph - N/A   Clear
5:38 AM 51.8 °F 50.0 °F 94% 30.23 in 10.0 mi SE 3.5 mph - N/A   Clear
5:59 AM 51.8 °F 50.0 °F 94% 30.23 in 10.0 mi SSE 5.8 mph - N/A   Clear
6:20 AM 51.8 °F 50.0 °F 94% 30.23 in 10.0 mi SE 4.6 mph - N/A   Clear
6:41 AM 51.8 °F 50.0 °F 94% 30.23 in 10.0 mi SSE 4.6 mph - N/A   Clear
7:03 AM 51.8 °F 50.0 °F 94% 30.23 in 10.0 mi SSE 3.5 mph - N/A   Clear
7:24 AM 51.8 °F 50.0 °F 94% 30.23 in 10.0 mi SE 4.6 mph - N/A   Clear
8:06 AM 51.8 °F 51.8 °F 100% 30.24 in 10.0 mi Calm Calm - N/A   Clear
8:28 AM 50.0 °F 50.0 °F 100% 30.24 in 7.0 mi Calm Calm - N/A   Clear
8:49 AM 53.6 °F 51.8 °F 94% 30.25 in 10.0 mi Calm Calm - N/A   Clear
9:10 AM 53.6 °F 51.8 °F 94% 30.25 in 10.0 mi Calm Calm - N/A   Clear
9:53 AM 55.4 °F 51.8 °F 88% 30.25 in 10.0 mi South 3.5 mph - N/A   Clear
10:14 AM 53.6 °F 50.0 °F 88% 30.25 in 7.0 mi Calm Calm - N/A   Clear
10:35 AM 57.2 °F 51.8 °F 82% 30.24 in 10.0 mi SSE 5.8 mph - N/A   Clear
10:56 AM 59.0 °F 51.8 °F 77% 30.23 in 10.0 mi SSE 5.8 mph - N/A   Clear
11:18 AM 60.8 °F 51.8 °F 72% 30.22 in 10.0 mi SE 10.4 mph - N/A   Clear
11:39 AM 60.8 °F 51.8 °F 72% 30.21 in 10.0 mi South 5.8 mph - N/A   Clear
12:00 PM 60.8 °F 51.8 °F 72% 30.20 in 10.0 mi SSE 9.2 mph - N/A   Clear
12:21 PM 62.6 °F 51.8 °F 68% 30.18 in 10.0 mi SSE 8.1 mph - N/A   Clear
12:42 PM 62.6 °F 51.8 °F 68% 30.18 in 10.0 mi SSE 6.9 mph - N/A   Clear
12:43 PM 62.6 °F 51.8 °F 68% 30.18 in 10.0 mi SSE 8.1 mph - N/A   Clear
1:04 PM 64.4 °F 51.8 °F 64% 30.16 in 10.0 mi South 6.9 mph - N/A   Clear
1:25 PM 64.4 °F 51.8 °F 64% 30.15 in 10.0 mi SSE 6.9 mph - N/A   Clear
1:46 PM 64.4 °F 51.8 °F 64% 30.14 in 10.0 mi South 8.1 mph - N/A   Clear
2:50 PM 64.4 °F 51.8 °F 64% 30.12 in 10.0 mi SSE 4.6 mph - N/A   Clear
3:11 PM 64.4 °F 51.8 °F 64% 30.12 in 10.0 mi SSE 5.8 mph - N/A   Clear
3:32 PM 66.2 °F 51.8 °F 60% 30.12 in 10.0 mi SSE 4.6 mph - N/A   Clear
3:54 PM 64.4 °F 51.8 °F 64% 30.12 in 10.0 mi SSE 8.1 mph - N/A   Clear
4:15 PM 64.4 °F 51.8 °F 64% 30.12 in 10.0 mi South 6.9 mph - N/A   Clear
4:36 PM 62.6 °F 51.8 °F 68% 30.11 in 10.0 mi SSE 9.2 mph - N/A   Clear
4:57 PM 60.8 °F 51.8 °F 72% 30.11 in 10.0 mi SSE 6.9 mph - N/A   Clear
5:19 PM 59.0 °F 51.8 °F 77% 30.11 in 10.0 mi SSE 8.1 mph - N/A   Clear
5:40 PM 59.0 °F 51.8 °F 77% 30.11 in 10.0 mi SE 6.9 mph - N/A   Clear
6:01 PM 57.2 °F 51.8 °F 82% 30.10 in 10.0 mi SE 6.9 mph - N/A   Clear
6:22 PM 55.4 °F 51.8 °F 88% 30.10 in 10.0 mi SSE 6.9 mph - N/A   Clear
6:44 PM 55.4 °F 51.8 °F 88% 30.09 in 10.0 mi SSE 5.8 mph - N/A   Clear
7:05 PM 55.4 °F 50.0 °F 82% 30.09 in 10.0 mi SSE 6.9 mph - N/A   Clear
7:26 PM 55.4 °F 50.0 °F 82% 30.09 in 10.0 mi SSE 8.1 mph - N/A   Clear
7:47 PM 59.0 °F 50.0 °F 72% 30.09 in 10.0 mi SSE 9.2 mph - N/A   Clear
8:08 PM 59.0 °F 50.0 °F 72% 30.08 in 10.0 mi SSE 8.1 mph - N/A   Clear
8:30 PM 57.2 °F 50.0 °F 77% 30.07 in 10.0 mi SSE 6.9 mph - N/A   Clear
8:51 PM 55.4 °F 50.0 °F 82% 30.07 in 10.0 mi SSE 6.9 mph - N/A   Clear
9:12 PM 57.2 °F 50.0 °F 77% 30.06 in 10.0 mi South 5.8 mph - N/A   Clear
9:34 PM 60.8 °F 50.0 °F 68% 30.06 in 10.0 mi South 6.9 mph - N/A   Clear
9:55 PM 60.8 °F 50.0 °F 68% 30.05 in 10.0 mi South 6.9 mph - N/A   Scattered Clouds
10:16 PM 60.8 °F 50.0 °F 68% 30.05 in 10.0 mi South 6.9 mph - N/A   Scattered Clouds
11:20 PM 60.8 °F 48.2 °F 63% 30.03 in 10.0 mi South 8.1 mph - N/A   Clear
11:41 PM 59.0 °F 48.2 °F 67% 30.02 in 10.0 mi South 8.1 mph - N/A   Clear